Location: Sternwarte Stuttgart
(48.7824°N, 9.1965°E)
Time: 20:40:31
(UTC+00:00)

ISS - Visible Passes

Search period start: 13 September 2024 00:00
Search period end: 23 September 2024 00:00
Orbit: 414 x 424 km, 51.6° (Epoch: 13 September)

Date Brightness Start Highest point End Pass type
(mag) Time Alt. Az. Time Alt. Az. Time Alt. Az.
13 Sep -3.9 19:27:05 10° WSW 19:30:26 70° SSE 19:30:44 64° ESE visible
14 Sep -3.5 18:39:43 10° SW 18:42:57 48° SSE 18:45:21 17° E visible
14 Sep -1.9 20:16:27 10° W 20:18:19 29° WNW 20:18:19 29° WNW visible
15 Sep -3.6 19:28:47 10° W 19:32:09 69° NNW 19:32:44 53° NE visible
16 Sep -3.8 18:41:06 10° WSW 18:44:29 87° NNW 18:47:01 17° ENE visible
16 Sep -1.6 20:18:11 10° WNW 20:19:58 27° WNW 20:19:58 27° WNW visible
17 Sep -3.2 19:30:25 10° W 19:33:43 51° N 19:34:08 47° NNE visible
18 Sep -3.3 18:42:35 10° W 18:45:53 57° N 18:48:12 18° ENE visible
18 Sep -1.3 20:19:38 10° WNW 20:21:07 23° WNW 20:21:07 23° WNW visible
19 Sep -3.5 17:54:42 10° W 17:58:02 69° NNW 18:01:25 10° ENE visible
19 Sep -3.2 19:31:48 10° WNW 19:35:05 51° N 19:35:05 51° N visible
20 Sep -3.1 18:43:52 10° WNW 18:47:09 49° N 18:49:00 23° ENE visible
20 Sep -1.1 20:20:47 10° WNW 20:21:55 20° WNW 20:21:55 20° WNW visible
21 Sep -3.1 17:55:52 10° W 17:59:09 51° N 18:02:28 10° ENE visible
21 Sep -3.2 19:32:52 10° WNW 19:35:45 57° NNW 19:35:45 57° NNW visible
22 Sep -3.4 18:44:51 10° WNW 18:48:10 55° N 18:49:33 30° ENE visible
22 Sep -0.8 20:21:42 10° WNW 20:22:28 16° WNW 20:22:28 16° WNW visible
